• In Hungary
  • List of Countries
  • For 7 days
  • Water Temperature
  • Satellite Maps
  • Weather Map
  • News
  • Weather Widgets
  • user-avatar
    Login

    Hourly Weather Nizhnie Sokoly

    Today, 24 September, Monday

    Time Temperature Precipitation Wind Pressure Humidity
    00:00 +9°C° 0 mm 2 mps 744 mmHg 97%
    01:00 +8°C° 0.1 mm 2 mps 744 mmHg 97%
    02:00 +8°C° 0.1 mm 2 mps 744 mmHg 97%
    03:00 +8°C° 0.1 mm 2 mps 744 mmHg 98%
    04:00 +9°C° 0.1 mm 1 mps 744 mmHg 98%
    05:00 +9°C° 0.1 mm 1 mps 744 mmHg 98%
    06:00 +9°C° 0 mm 1 mps 744 mmHg 98%
    07:00 +10°C° 0 mm 1 mps 744 mmHg 95%
    08:00 +11°C° 0 mm 1 mps 744 mmHg 93%
    09:00 +12°C° 0 mm 2 mps 744 mmHg 90%
    10:00 +12°C° 0.2 mm 2 mps 745 mmHg 87%
    11:00 +13°C° 0.2 mm 2 mps 745 mmHg 84%
    12:00 +13°C° 0.2 mm 2 mps 745 mmHg 81%
    13:00 +12°C° 0.1 mm 3 mps 745 mmHg 79%
    14:00 +12°C° 0.1 mm 3 mps 745 mmHg 77%
    15:00 +13°C° 0.1 mm 3 mps 745 mmHg 74%
    16:00 +12°C° 0 mm 2 mps 745 mmHg 79%
    17:00 +10°C° 0 mm 2 mps 746 mmHg 84%
    18:00 +9°C° 0 mm 2 mps 746 mmHg 89%
    19:00 +8°C° 0 mm 2 mps 746 mmHg 91%
    20:00 +8°C° 0 mm 2 mps 747 mmHg 94%
    21:00 +7°C° 0 mm 2 mps 747 mmHg 96%
    22:00 +6°C° 0 mm 2 mps 747 mmHg 96%
    23:00 +6°C° 0 mm 2 mps 747 mmHg 97%

    Tomorrow, 25 September, Tuesday

    Time Temperature Precipitation Wind Pressure Humidity
    00:00 +6°C° 0 mm 2 mps 748 mmHg 97%
    01:00 +6°C° 0 mm 2 mps 748 mmHg 98%
    02:00 +6°C° 0 mm 2 mps 748 mmHg 98%
    03:00 +5°C° 0 mm 2 mps 748 mmHg 98%
    04:00 +6°C° 0 mm 2 mps 748 mmHg 98%
    05:00 +6°C° 0 mm 2 mps 749 mmHg 97%
    06:00 +7°C° 0 mm 2 mps 749 mmHg 97%
    07:00 +7°C° 0 mm 3 mps 749 mmHg 95%
    08:00 +8°C° 0 mm 3 mps 749 mmHg 92%
    09:00 +9°C° 0 mm 3 mps 749 mmHg 90%
    10:00 +8°C° 0.1 mm 4 mps 749 mmHg 89%
    11:00 +10°C° 0.1 mm 4 mps 749 mmHg 87%
    12:00 +9°C° 0.1 mm 5 mps 749 mmHg 85%
    13:00 +9°C° 0.3 mm 5 mps 749 mmHg 87%
    14:00 +10°C° 0.3 mm 4 mps 749 mmHg 89%
    15:00 +10°C° 0.3 mm 4 mps 750 mmHg 91%
    16:00 +10°C° 0.1 mm 4 mps 750 mmHg 92%
    17:00 +10°C° 0.1 mm 4 mps 750 mmHg 93%
    18:00 +11°C° 0.1 mm 4 mps 750 mmHg 94%
    19:00 +11°C° 0.3 mm 4 mps 750 mmHg 95%
    20:00 +11°C° 0.3 mm 4 mps 750 mmHg 96%
    21:00 +11°C° 0.3 mm 4 mps 751 mmHg 96%
    22:00 +11°C° 0.5 mm 4 mps 751 mmHg 96%
    23:00 +11°C° 0.5 mm 4 mps 751 mmHg 96%

    Day after tomorrow, 26 September, Wednesday

    Time Temperature Precipitation Wind Pressure Humidity
    00:00 +12°C° 0.5 mm 4 mps 751 mmHg 96%
    01:00 +11°C° 0.2 mm 4 mps 751 mmHg 96%
    02:00 +11°C° 0.2 mm 4 mps 751 mmHg 97%
    03:00 +11°C° 0.2 mm 3 mps 751 mmHg 97%
    04:00 +11°C° 0.1 mm 3 mps 751 mmHg 97%
    05:00 +11°C° 0.1 mm 3 mps 752 mmHg 97%
    06:00 +11°C° 0.1 mm 3 mps 752 mmHg 97%
    07:00 +11°C° 0.1 mm 3 mps 752 mmHg 97%
    08:00 +12°C° 0.1 mm 3 mps 753 mmHg 96%
    09:00 +12°C° 0.1 mm 3 mps 753 mmHg 95%
    10:00 +12°C° 0.1 mm 3 mps 753 mmHg 94%
    11:00 +13°C° 0.1 mm 2 mps 753 mmHg 94%
    12:00 +14°C° 0.1 mm 2 mps 753 mmHg 93%
    13:00 +14°C° 0.1 mm 2 mps 753 mmHg 92%
    14:00 +15°C° 0.1 mm 2 mps 754 mmHg 91%
    15:00 +15°C° 0.1 mm 2 mps 754 mmHg 90%
    16:00 +14°C° 0.1 mm 2 mps 754 mmHg 91%
    17:00 +14°C° 0.1 mm 1 mps 754 mmHg 93%
    18:00 +13°C° 0.1 mm 1 mps 755 mmHg 95%
    19:00 +13°C° 0 mm 1 mps 755 mmHg 95%
    20:00 +13°C° 0 mm 1 mps 755 mmHg 95%
    21:00 +12°C° 0 mm 1 mps 756 mmHg 95%
    22:00 +12°C° 0 mm 1 mps 756 mmHg 95%
    23:00 +12°C° 0 mm 1 mps 756 mmHg 95%

    27 September, Thursday

    Time Temperature Precipitation Wind Pressure Humidity
    00:00 +11°C° 0 mm 1 mps 756 mmHg 95%
    01:00 +11°C° 0 mm 1 mps 756 mmHg 95%
    02:00 +11°C° 0 mm 1 mps 756 mmHg 94%
    03:00 +11°C° 0 mm 1 mps 756 mmHg 94%
    04:00 +11°C° 0 mm 1 mps 756 mmHg 95%
    05:00 +11°C° 0 mm 1 mps 756 mmHg 95%
    06:00 +11°C° 0 mm 1 mps 757 mmHg 95%
    07:00 +12°C° 0 mm 1 mps 757 mmHg 94%
    08:00 +13°C° 0 mm 1 mps 757 mmHg 92%
    09:00 +14°C° 0 mm 1 mps 757 mmHg 90%
    10:00 +15°C° 0 mm 2 mps 757 mmHg 87%
    11:00 +17°C° 0 mm 2 mps 757 mmHg 84%
    12:00 +18°C° 0 mm 2 mps 757 mmHg 81%
    13:00 +18°C° 0.1 mm 2 mps 757 mmHg 80%
    14:00 +19°C° 0.1 mm 2 mps 757 mmHg 78%
    15:00 +19°C° 0.1 mm 2 mps 757 mmHg 77%
    16:00 +19°C° 0 mm 1 mps 757 mmHg 82%
    17:00 +18°C° 0 mm 1 mps 757 mmHg 87%
    18:00 +15°C° 0 mm 1 mps 757 mmHg 92%
    19:00 +15°C° 0 mm 1 mps 757 mmHg 93%
    20:00 +14°C° 0 mm 1 mps 757 mmHg 94%
    21:00 +13°C° 0 mm 1 mps 757 mmHg 95%
    22:00 +13°C° 0 mm 1 mps 757 mmHg 95%
    23:00 +13°C° 0 mm 1 mps 757 mmHg 95%

    28 September, Friday

    Time Temperature Precipitation Wind Pressure Humidity
    00:00 +12°C° 0 mm 0 mps 756 mmHg 95%
    01:00 +11°C° 0 mm 0 mps 756 mmHg 95%
    02:00 +11°C° 0 mm 0 mps 756 mmHg 96%
    03:00 +11°C° 0 mm 0 mps 756 mmHg 96%
    04:00 +11°C° 0 mm 0 mps 756 mmHg 96%
    05:00 +11°C° 0 mm 0 mps 756 mmHg 96%
    06:00 +11°C° 0 mm 0 mps 756 mmHg 96%
    07:00 +13°C° 0 mm 1 mps 756 mmHg 94%
    08:00 +14°C° 0 mm 1 mps 756 mmHg 93%
    09:00 +14°C° 0 mm 1 mps 756 mmHg 91%
    10:00 +15°C° 0 mm 1 mps 755 mmHg 87%
    11:00 +16°C° 0 mm 2 mps 755 mmHg 84%
    12:00 +16°C° 0 mm 2 mps 755 mmHg 80%
    13:00 +17°C° 0 mm 2 mps 755 mmHg 76%
    14:00 +17°C° 0 mm 3 mps 754 mmHg 72%
    15:00 +18°C° 0 mm 3 mps 754 mmHg 68%
    16:00 +16°C° 0 mm 3 mps 754 mmHg 75%
    17:00 +14°C° 0 mm 3 mps 754 mmHg 81%
    18:00 +14°C° 0 mm 2 mps 754 mmHg 87%
    19:00 +12°C° 0 mm 3 mps 754 mmHg 87%
    20:00 +11°C° 0 mm 3 mps 753 mmHg 87%
    21:00 +11°C° 0 mm 3 mps 753 mmHg 86%
    22:00 +10°C° 0 mm 3 mps 753 mmHg 84%
    23:00 +9°C° 0 mm 3 mps 752 mmHg 82%

    29 September, Saturday

    Time Temperature Precipitation Wind Pressure Humidity
    00:00 +8°C° 0 mm 3 mps 752 mmHg 80%
    01:00 +8°C° 0 mm 3 mps 752 mmHg 82%
    02:00 +7°C° 0 mm 3 mps 751 mmHg 83%
    03:00 +5°C° 0 mm 3 mps 751 mmHg 84%
    04:00 +5°C° 0 mm 3 mps 750 mmHg 86%
    05:00 +4°C° 0 mm 3 mps 750 mmHg 87%
    06:00 +4°C° 0 mm 3 mps 750 mmHg 89%
    07:00 +5°C° 0 mm 3 mps 749 mmHg 84%
    08:00 +7°C° 0 mm 3 mps 749 mmHg 78%
    09:00 +9°C° 0 mm 3 mps 748 mmHg 73%
    10:00 +10°C° 0 mm 3 mps 748 mmHg 68%
    11:00 +12°C° 0 mm 3 mps 748 mmHg 63%
    12:00 +14°C° 0 mm 3 mps 747 mmHg 58%
    13:00 +15°C° 0 mm 4 mps 747 mmHg 57%
    14:00 +15°C° 0 mm 4 mps 746 mmHg 56%
    15:00 +17°C° 0 mm 4 mps 746 mmHg 54%
    16:00 +16°C° 0 mm 3 mps 746 mmHg 61%
    17:00 +14°C° 0 mm 3 mps 746 mmHg 68%
    18:00 +12°C° 0 mm 3 mps 745 mmHg 75%
    19:00 +12°C° 0.1 mm 3 mps 746 mmHg 78%
    20:00 +12°C° 0.1 mm 4 mps 746 mmHg 81%
    21:00 +12°C° 0.1 mm 4 mps 746 mmHg 84%
    22:00 +10°C° 0.1 mm 5 mps 746 mmHg 83%
    23:00 +9°C° 0.1 mm 5 mps 747 mmHg 83%
    Show more